FENGYUN 1C DEB, 30707

Orbit data source: Space-Track

FENGYUN 1C DEB, 30707 is space debris in SSO originally from a launch on Mon, 10 May 1999 UTC launched from the Taiyaun Space Center, China (TSC). Fengyun 1C debris stems from the Chinese weather satellite Fengyun-1C, which was intentionally destroyed by a Chinese anti-satellite missile in 2007. This event dramatically increased the amount of space debris, with thousands of trackable fragments posing hazards to satellites and human spaceflight. The Fengyun 1C debris cloud has become a focal point in discussions about space sustainability and the need for international regulations to prevent the creation of new debris.

Loading next visibility...
Identifier
30707, 1999-025ARR
Orbit
SSO
Country
Flag of CNCN / PRC
Related business
Manufacturer
Unknown
Mission
Spacecraft
Bus & Motor
Unknown
Mass
Unknown
Launch date (UTC)
1999-05-10 (27 years ago)
Launch vehicle
Unknown
Launch site
Taiyaun Space Center, China (TSC)
Object type
Payload
Rocket body
Debris
Shape & HBR
Unknown shape, 0.1 m
Radar Cross Section
Small (<0.1 m²)

Expand to show TLE details & history
Last TLE update: 2 days ago

TLE from 2 days ago
0 FENGYUN 1C DEB
1 30707U 99025ARR 26105.14012733  .00001751  00000-0  72880-3 0  9999
2 30707  99.3989 173.7579 0028370  81.1320 309.1539 14.27576457985639
Epoch: 2026-04-15T03:21Z
TLE epoch observation values (Epoch: 2026-04-15T03:21:47.001Z)
Latitude
29.64059°
Longitude
-85.37004°
Altitude
790.694 km
Speed
7.468 km/s
True Right ascension
11h 13m 31s
True Declination
29° 29' 37"
Sunlit
Object was in full shadow at epoch
Visualization orbit readout
Latitude
Unknown
Longitude
Unknown
Altitude
Unknown
Speed
Unknown
Apparent Right ascension
Unknown
Apparent Declination
Unknown
Sunlit
N/A
Visualization observer readout
Local Sidereal Time
10:00:03
Azimuth
Unknown
Elevation
Unknown
Doppler factor
Unknown
Orbital elements
Apogee altitude
817.382 km
Perigee altitude
776.67 km
Semi-major axis
7,175.163 km
Eccentricity
0.00284
Inclination
99.3989°
RAAN
173.7579°
Arg. of periapsis
81.132°
True anomaly
308.90124°
Mean anomaly
309.1539°
Eccentric anomaly
309.02763°
Mean motion
3.57105 °/min
Orbital period
100.81 mins
BSTAR
0.0007288
Loading maneuver chart data...
Computing Atmospheric mass density...
Loading historical data...
Loading historical data...
Loading historical data...
Loading historical data...
Loading historical data...
Loading historical data...
Loading historical data...

Documentation

Showing up to 5 results
|